METEOR 2-21

导读

METEOR 2-21是独联体(CIS)于1993年8月31日发射的第二代流星(Meteor 2)系列气象卫星,由俄罗斯主导研制运营,卫星编号NORAD 22782,COSPAR ID为9305501。它搭载了可见光红外相机、10通道扫描辐射计等常规气象载荷,还特别配置独特的斐索干涉复古反射器阵列,服务于卫星激光测距技术试验,设计寿命1-2年,主要用于气象监测任务。

Basic Information
目录编号:
22782
目录名称:
METEOR 2-21
国际标识:
1993-055A
轨道中心:
EARTH
卫星名称:
METEOR 2-21
卫星全名:
--
卫星状态:
在轨 (已飞行12065 天)
发射日期:
1993-08-31 UTC
国别 :
俄罗斯(独联体) (CIS)
星等 :
--
This satellite is enrolled in the Space Conjunction Data Service (SCDS) and the current flight risk assessment level is: No High Risk
Orbit Information
数据来源 国际轨道数据 AOE轨道数据
星历时间 2026-09-11T19:18:06+0800
16小时前
查看轨道信息
2026-09-10T07:00:00+0800
2天前
查看轨道信息
半长轴 7327.755km 7327.754km
偏心率 0.0021554 0.0021583
轨道倾角 82.547° 82.547°
近地点辐角 329.830° 334.077°
升交点赤经 226.243° 227.443°
平近点角 150.011° 173.594°
近地点 933.823km 933.801km
远地点 965.413km 965.433km
周期 104.044分钟 104.044分钟
每日圈数 13.840328 13.840331
Detailed Information
使用方式:
暂无
2D Orbit Map
3D Orbit Map
Orbit Altitude Analysis Chart
Orbit Inclination Analysis Chart
Orbit Comprehensive Analysis Chart
View Comprehensive Chart
Miss Distance Evolution Trend with All Objects
Collision Probability Evolution Trend with All Objects